Flag for Spain Weather past 2 weeks in Córdoba, Spain

Now
66 °F

Clear.


Feels Like: 66 °F
Forecast: 57 / 92 °F
Wind: 8 mph from West

Location: Moron De La Frontera Airport

Current Time: May 31, 2015 at 1:18:20 AM

Latest Report: May 31, 2015 at 1:00 AM


Visibility: 10 mi

Pressure: 30.04 "Hg

Humidity: 88%

Dew point: 63 °F

Location of CórdobaLocation

Historic Weather in Córdoba — Graph

°F

Córdoba temperature yesterday

Maximum temperature yesterday: 86 °F (at 4:00 PM)
Minimum temperature yesterday: 61 °F (at 5:00 AM)
Average temperature yesterday: 73 °F

Past Weeks' High & Low Weather Summary

 TemperatureHumidityPressure
High95 °F (May 28, 4:00 PM)100% (May 27, 12:00 AM)30.18 "Hg (May 27, 12:00 AM)
Low55 °F (May 18, 8:00 AM)11% (May 16, 6:00 PM)29.80 "Hg (May 19, 7:00 PM)
Average72 °F51%30.00 "Hg
* Reported Midnight between May 15 and May 16 — Midnight between May 30 and May 31, Córdoba, Weather by CustomWeather, © 2015

Note: Actual official high and low records may vary slightly from our data, if they occured in-between our weather recording intervals... More about our weather records

Advertising

Córdoba weather history for previous 24 hours

 ConditionsComfort  
Time TempWeatherWind HumidityBarometerVisibility
12:00 AM
Sun, May 31
66 °FClear.8 mph88%30.04 "Hg10 mi
11:00 PM
Sat, May 30
68 °FPassing clouds.8 mph83%30.04 "HgN/A
10:00 PM70 °FPassing clouds.8 mph78%30.04 "HgN/A
9:00 PM77 °FPassing clouds.8 mph61%29.98 "HgN/A
8:00 PM82 °FPassing clouds.8 mph51%29.98 "HgN/A
7:00 PM86 °FPassing clouds.8 mph35%29.98 "HgN/A
6:00 PM86 °FPassing clouds.8 mph43%30.01 "HgN/A
5:00 PM86 °FPassing clouds.8 mph46%30.01 "HgN/A
4:00 PM86 °FWarm.8 mph46%30.01 "HgN/A
3:00 PM84 °FPassing clouds.8 mph48%30.04 "HgN/A
2:00 PM82 °FPassing clouds.8 mph51%30.04 "HgN/A
1:00 PM79 °FScattered clouds.8 mph58%30.04 "HgN/A
12:00 PM77 °FScattered clouds.8 mph57%30.07 "Hg6 mi
11:00 AM73 °FPartly sunny.8 mph74%30.07 "Hg4 mi
10:00 AM70 °FPartly sunny.8 mph78%30.07 "Hg4 mi
9:00 AM70 °FPartly sunny.6 mph78%30.07 "Hg4 mi
8:00 AM68 °FPassing clouds.7 mph83%30.07 "Hg4 mi
7:00 AM66 °FFog.8 mph88%30.04 "Hg3 mi
6:00 AM66 °FPassing clouds.3 mph88%30.04 "Hg4 mi
5:00 AM61 °FPassing clouds.3 mph100%30.04 "Hg4 mi
4:00 AM63 °FClear.3 mph94%30.01 "Hg4 mi
3:00 AM63 °FClear.3 mph94%30.01 "Hg5 mi
2:00 AM64 °FClear.5 mph88%30.01 "Hg10 mi
1:00 AM66 °FPassing clouds.3 mph83%30.04 "HgN/A
Weather by CustomWeather, © 2015

See weather overviewHow to use our weather pages